Location: Waco, TX
(31.5480°N, 97.1670°W)
Time: 04:17:36
(UTC-06:00)

ISS - Pass Details

Date: 17 February 2018
Orbit: 402 x 407 km, 51.6° (Epoch: 24 February)

Event Time Altitude Azimuth Distance (km) Brightness Sun altitude
Rises 18:11:43 0° 301° (WNW) 2,312 0.8 0.3°
Reaches altitude 10° 18:14:02 10° 287° (WNW) 1,451 0.1 -0.1°
Maximum altitude 18:16:43 24° 231° (SW) 874 -1.1 -0.7°
Drops below altitude 10° 18:19:25 10° 175° (S) 1,445 -0.9 -1.3°
Sets 18:21:43 0° 161° (SSE) 2,300 -0.1 -1.7°
